{"data":{"norad_id":52834,"epoch":"2026-09-19T13:35:40.079040Z","epoch_age_seconds":147041,"freshness":"FRESH","line1":"1 52834U 22062E   26262.56643610  .00000445  00000+0  26117-4 0  9996","line2":"2 52834  53.1588 233.1729 0001319  87.0344 273.0809 15.31699140235199","mean_motion":15.3169914,"eccentricity":0.0001319,"inclination_deg":53.1588,"raan_deg":233.1729,"arg_perigee_deg":87.0344,"mean_anomaly_deg":273.0809,"bstar":2.6117e-5,"rev_number":23519,"period_min":94.013240746482,"perigee_km":469.83919162829,"apogee_km":471.64592605591,"semimajor_km":6848.8795588421,"source":"CELESTRAK","updated_at":"2026-09-20T09:00:40.111283Z"}}